Вернуться в каталог

STARLINK-3883

АктивенСвязьVLEO
NORAD 52493·PAYLOAD·🇺🇸 United States

Запущен May 6, 2022 с Cape Canaveral Space Force Station

Loading…

Ближайшие Пролёты (ближайшие 24 часа)

TLE

СвежийSource: CelesTrak SupGP

Эпоха: Sep 15, 2026, 01:29 UTC

1 52493C 22049AU  26258.06229167  .00007593  00000+0  21717-3 0  2588
2 52493  53.1589 269.4439 0001394  88.5674  79.4408 15.35406504    14

Отслеживайте STARLINK-3883 в реальном времени с AllMySat

Download on the App Store